Mount Pleasant, SC

7:24 AM EDT on May 27, 2017 (GMT -0400)
Mount Pleasant

Weather History for KLRO - February, 2013

Change the Weather History Date:

Saturday, February 23, 2013

  Actual Average (KCHS) Record (KCHS)
Temperature  
Mean Temperature 54 °F -  
Max Temperature 62 °F 62 °F 81 °F (1980)
Min Temperature 46 °F 43 °F 22 °F (1978)
Degree Days  
Heating Degree Days 11    
Growing Degree Days 4 (Base 50)    
Moisture  
Dew Point 52 °F    
Average Humidity 99    
Maximum Humidity 100    
Minimum Humidity 94    
Precipitation  
Precipitation 3.35 in - - ()
Sea Level Pressure  
Sea Level Pressure 29.94 in    
Wind  
Wind Speed 4 mph (WNW)    
Max Wind Speed 15 mph    
Max Gust Speed 23 mph    
Visibility 4 miles    
Events Rain    
Averages and records for this station are not official NWS values.
T = Trace of Precipitation, MM = Missing Value Source: NWS Daily Summary

Daily Weather History Graph

Daily Weather History Graph

Search for Another Location

Airport or City:

Trip Planner

Search our weather history database for the weather conditions in past years. The results will help you decide how hot, cold, wet, or windy it might be!

Date:

Astronomy

Feb. 23, 2013 Rise Set
Actual Time 6:53 AM EST 6:11 PM EST
Civil Twilight 6:28 AM EST 6:36 PM EST
Nautical Twilight 6:00 AM EST 7:05 PM EST
Astronomical Twilight 5:31 AM EST 7:33 PM EST
Moon 4:23 PM EST (2/23) 5:10 AM EST (2/23)
Length of Visible Light 12h 07m
Length of Day
11h 17m
Waxing Gibbous, 95% of the Moon is Illuminated
Feb 23
Waxing Gibbous
Feb 25
Full
Mar 4
Last Quarter
Mar 11
New
Mar 19
First Quarter

Hourly Weather History & Observations

Time (EST) Temp. Windchill Dew Point Humidity Pressure Visibility Wind Dir Wind Speed Gust Speed Precip Events Conditions
12:15 AM 48.2 °F - 48.2 °F 100% 30.06 in 0.5 mi NNW 3.5 mph - N/A   Light Drizzle
12:35 AM 48.2 °F - 48.2 °F 100% 30.05 in 0.5 mi NNW 4.6 mph - N/A Rain Light Rain
12:55 AM 48.2 °F - 48.2 °F 100% 30.04 in 1.0 mi North 4.6 mph - 0.01 in Rain Light Rain
1:15 AM 48.2 °F - 48.2 °F 100% 30.05 in 2.5 mi NNW 5.8 mph - N/A Rain Light Rain
1:35 AM 48.2 °F - 48.2 °F 100% 30.04 in 4.0 mi North 4.6 mph - 0.01 in Rain Light Rain
1:55 AM 46.4 °F 43.5 °F 46.4 °F 100% 30.04 in 4.0 mi NNW 5.8 mph - 0.02 in   Light Drizzle
2:15 AM 46.4 °F 42.9 °F 46.4 °F 100% 30.04 in 5.0 mi NNW 6.9 mph - N/A Rain Light Rain
2:35 AM 46.4 °F 44.3 °F 46.4 °F 100% 30.02 in 5.0 mi NNW 4.6 mph - 0.01 in Rain Light Rain
2:55 AM 46.4 °F 43.5 °F 46.4 °F 100% 30.00 in 4.0 mi NNW 5.8 mph - 0.03 in Rain Light Rain
3:15 AM 46.4 °F 45.2 °F 46.4 °F 100% 29.99 in 5.0 mi North 3.5 mph - N/A Rain Light Rain
3:35 AM 46.4 °F 45.2 °F 46.4 °F 100% 29.98 in 5.0 mi NNE 3.5 mph - 0.01 in Rain Light Rain
3:55 AM 46.4 °F - 46.4 °F 100% 29.98 in 3.0 mi Calm Calm - 0.03 in Rain Light Rain
4:15 AM 46.4 °F - 46.4 °F 100% 29.97 in 2.5 mi Calm Calm - 0.03 in Rain Rain
4:35 AM 46.4 °F - 46.4 °F 100% 29.97 in 3.0 mi Calm Calm - 0.08 in Rain Light Rain
5:15 AM 46.4 °F 45.2 °F 46.4 °F 100% 29.97 in 5.0 mi NNE 3.5 mph - 0.01 in   Overcast
5:35 AM 46.4 °F 44.3 °F 46.4 °F 100% 29.98 in 7.0 mi North 4.6 mph - 0.01 in Rain Light Rain
5:55 AM 46.4 °F 44.3 °F 46.4 °F 100% 29.97 in 9.0 mi North 4.6 mph - 0.01 in   Light Drizzle
6:15 AM 46.4 °F 44.3 °F 46.4 °F 100% 29.97 in 1.8 mi NNW 4.6 mph - 0.15 in Rain Heavy Rain
6:35 AM 46.4 °F - 46.4 °F 100% 29.97 in 1.5 mi Calm Calm - 0.33 in Rain Heavy Rain
6:55 AM 46.4 °F 44.3 °F 46.4 °F 100% 29.96 in 2.0 mi NE 4.6 mph - 0.54 in Rain Rain
7:15 AM 46.4 °F - 46.4 °F 100% 29.95 in 7.0 mi Calm Calm - N/A   Light Drizzle
7:35 AM 46.4 °F - 46.4 °F 100% 29.95 in 3.0 mi Calm Calm - 0.01 in Rain Light Rain
7:55 AM 46.4 °F - 46.4 °F 100% 29.95 in 3.0 mi Calm Calm - 0.02 in Rain Rain
8:15 AM 48.2 °F - 48.2 °F 100% 29.96 in 2.0 mi Calm Calm - 0.01 in Rain Light Rain
8:35 AM 48.2 °F - 48.2 °F 100% 29.96 in 3.0 mi Calm Calm - 0.03 in Rain Rain
9:15 AM 48.2 °F - 48.2 °F 100% 29.96 in 1.0 mi Calm Calm - 0.11 in Rain Heavy Rain
9:35 AM 48.2 °F - 48.2 °F 100% 29.96 in 2.0 mi North 4.6 mph - 0.19 in   Light Drizzle
9:55 AM 48.2 °F - 48.2 °F 100% 29.98 in 1.2 mi Calm Calm - 0.28 in Rain Heavy Rain
10:15 AM 50.0 °F - 50.0 °F 100% 29.96 in 0.5 mi Calm Calm - 0.26 in Rain Heavy Rain
10:35 AM 51.8 °F - 51.8 °F 100% 29.97 in 1.0 mi Calm Calm - 0.53 in Rain Heavy Rain
10:55 AM 51.8 °F - 51.8 °F 100% 29.96 in 1.0 mi Calm Calm - 0.71 in Rain Heavy Rain
11:15 AM 51.8 °F - 51.8 °F 100% 29.96 in 1.2 mi Calm Calm - 0.09 in Rain Heavy Rain
11:35 AM 51.8 °F - 51.8 °F 100% 29.96 in 1.8 mi NNW 4.6 mph - 0.20 in Rain Rain
11:55 AM 51.8 °F - 51.8 °F 100% 29.97 in 1.8 mi NW 3.5 mph - 0.30 in Rain Heavy Rain
12:15 PM 51.8 °F - 51.8 °F 100% 29.97 in 0.8 mi Calm Calm - 0.25 in Rain Heavy Rain
12:35 PM 51.8 °F - 51.8 °F 100% 29.94 in 0.5 mi SE 4.6 mph - 0.66 in Rain Heavy Rain
1:15 PM 57.2 °F - 57.2 °F 100% 29.93 in 2.0 mi South 4.6 mph - 0.04 in Rain Rain
1:35 PM 59.0 °F - 59.0 °F 100% 29.92 in 8.0 mi SSW 9.2 mph - 0.05 in Rain Light Rain
1:55 PM 60.8 °F - 60.8 °F 100% 29.90 in 4.0 mi South 9.2 mph - 0.05 in   Light Drizzle
2:15 PM 60.8 °F - 60.8 °F 100% 29.91 in 3.0 mi SW 11.5 mph - 0.01 in Rain Rain
2:35 PM 62.6 °F - 62.6 °F 100% 29.89 in 4.0 mi SSW 10.4 mph - 0.04 in Rain Rain
2:55 PM 62.6 °F - 62.6 °F 100% 29.87 in 5.0 mi SSW 11.5 mph - 0.05 in Rain Light Rain
3:15 PM 62.6 °F - 62.6 °F 100% 29.85 in 5.0 mi SSW 15.0 mph 23.0 mph N/A Rain Light Rain
3:35 PM 62.6 °F - 60.8 °F 94% 29.82 in 5.0 mi South 15.0 mph 19.6 mph 0.01 in Rain Light Rain
3:55 PM 62.6 °F - 60.8 °F 94% 29.86 in 7.0 mi WNW 12.7 mph 18.4 mph 0.02 in   Clear
4:15 PM 62.6 °F - 60.8 °F 94% 29.86 in 9.0 mi West 5.8 mph - N/A   Clear
4:35 PM 62.6 °F - 60.8 °F 94% 29.86 in 10.0 mi West 5.8 mph - N/A   Partly Cloudy
4:55 PM 62.6 °F - 62.6 °F 100% 29.85 in 5.0 mi Calm Calm - N/A Rain Light Rain
5:15 PM 62.6 °F - 62.6 °F 100% 29.85 in 6.0 mi WNW 8.1 mph - N/A   Mostly Cloudy
5:35 PM 60.8 °F - 59.0 °F 94% 29.86 in 8.0 mi SW 4.6 mph - N/A   Overcast
6:15 PM 57.2 °F - 55.4 °F 94% 29.86 in 5.0 mi NNW 6.9 mph - N/A   Overcast
6:35 PM 55.4 °F - 53.6 °F 94% 29.86 in 5.0 mi North 3.5 mph - N/A   Overcast
6:55 PM 53.6 °F - 53.6 °F 100% 29.87 in 5.0 mi Calm Calm - N/A   Overcast
7:15 PM 53.6 °F - 53.6 °F 100% 29.89 in 5.0 mi NNW 4.6 mph - N/A   Overcast
7:35 PM 53.6 °F - 53.6 °F 100% 29.89 in 4.0 mi NNW 5.8 mph - N/A   Overcast
7:55 PM 53.6 °F - 53.6 °F 100% 29.89 in 5.0 mi Calm Calm - N/A   Overcast
8:15 PM 53.6 °F - 53.6 °F 100% 29.92 in 4.0 mi WNW 5.8 mph - N/A   Overcast
8:35 PM 51.8 °F - 51.8 °F 100% 29.91 in 5.0 mi Calm Calm - N/A   Overcast
8:55 PM 51.8 °F - 51.8 °F 100% 29.93 in 7.0 mi WNW 5.8 mph - N/A   Overcast
9:15 PM 51.8 °F - 51.8 °F 100% 29.93 in 4.0 mi West 4.6 mph - 0.01 in Rain Rain
9:35 PM 51.8 °F - 51.8 °F 100% 29.94 in 2.5 mi WSW 6.9 mph - 0.13 in Rain Heavy Rain
9:55 PM 53.6 °F - 53.6 °F 100% 29.94 in 2.5 mi SW 5.8 mph - 0.26 in Rain Rain
10:15 PM 53.6 °F - 53.6 °F 100% 29.95 in 2.0 mi SW 4.6 mph - 0.05 in Rain Heavy Rain
10:35 PM 55.4 °F - 55.4 °F 100% 29.94 in 2.5 mi South 5.8 mph - 0.15 in Rain Rain
10:55 PM 55.4 °F - 55.4 °F 100% 29.91 in 2.5 mi Calm Calm - 0.21 in Rain Light Rain
11:15 PM 55.4 °F - 55.4 °F 100% 29.87 in 2.0 mi SE 6.9 mph - 0.02 in Rain Rain
11:35 PM 55.4 °F - 55.4 °F 100% 29.79 in 2.5 mi SE 8.1 mph - 0.04 in Rain Light Rain
11:55 PM 55.4 °F - 55.4 °F 100% 29.81 in 6.0 mi South 4.6 mph - 0.04 in   Partly Cloudy